User: anonymous   Login
Location: Muenchen
(48.1800°N, 11.5800°E)
Time: 15:28:53
(UTC+02:00)
Language:

Iridium 37 - Orbit

View from above orbital plane
View from above orbital plane
View from above satellite
View from above satellite

Ground track
Ground track

The orbit data is extracted from the following two-line orbital elements,

1 24968U 97056D   15144.42374654  .00000295  00000-0  98151-4 0  9990
2 24968 086.3959 274.3220 0002265 094.4453 265.7001 14.34217723924353
Epoch (UTC): 24 May 2015 10:10:11
Eccentricity: 0.0002265
inclination: 86.3959°
perigee height: 776 km
apogee height: 779 km
right ascension of ascending node: 274.3220°
argument of perigee: 94.4453°
revolutions per day: 14.34217723
mean anomaly at epoch: 265.7001°
orbit number at epoch: 92435

The dashed part of the orbit path shows where the satellite is in the earth's shadow,  

DLR